GW2905 Weather Reports


time (UTC)temp
C
wind
direction
speed
KPH
gust
KPH
rain 1hr
cm
rain 24hr
cm
rain mn
cm
humidity
%
barometer
mb
20260505180105 12 0 0.0 3.2 0.00 0.03 0.03 85 1016.0
20260505174603 12 0 0.0 3.2 0.00 0.03 0.03 88 1015.9
20260505173052 12 0 0.0 1.6 0.00 0.03 0.03 89 1015.9
20260505171554 11 0 0.0 1.6 0.00 0.03 0.03 90 1015.8
20260505170057 11 0 0.0 1.6 0.00 0.03 0.03 90 1015.6
20260505164554 11 67 0.0 3.2 0.00 0.03 0.03 92 1015.6
20260505163056 11 177 0.0 1.6 0.00 0.03 0.03 92 1015.6
20260505161614 11 0 0.0 1.6 0.00 0.03 0.03 94 1015.5
20260505153054 10 0 0.0 1.6 0.03 0.03 0.03 95 1015.3
20260505151551 10 0 0.0 1.6 0.03 0.03 0.03 95 1015.3
20260505140104 10 0 0.0 3.2 0.00 0.00 0.00 94 1014.7
20260505124555 11 0 0.0 3.2 0.00 0.00 0.00 93 1014.5
20260505123102 11 0 0.0 3.2 0.00 0.00 0.00 92 1014.4
20260505121600 11 0 0.0 3.2 0.00 0.00 0.00 92 1014.4
20260505120053 11 0 0.0 3.2 0.00 0.00 0.00 92 1014.2
20260505114551 11 0 0.0 3.2 0.00 0.00 0.00 91 1014.2
20260505113108 11 0 0.0 3.2 0.00 0.00 0.00 91 1014.2
20260505111552 11 0 0.0 1.6 0.00 0.00 0.00 91 1014.1
20260505101555 11 0 0.0 3.2 0.00 0.00 0.00 90 1013.7
20260505100057 11 0 0.0 1.6 0.00 0.00 0.00 90 1013.7
20260505094550 11 292 0.0 3.2 0.00 0.00 0.00 90 1013.8
20260505093054 11 282 0.0 3.2 0.00 0.00 0.00 90 1013.6
20260505091614 11 0 0.0 3.2 0.00 0.00 0.00 90 1013.4
20260505090051 11 0 0.0 3.2 0.00 0.00 0.00 90 1013.3
20260505084553 11 0 0.0 1.6 0.00 0.00 0.00 90 1013.2
20260505083103 11 0 0.0 1.6 0.00 0.00 0.00 90 1013.1
20260505081604 11 0 0.0 3.2 0.00 0.00 0.00 89 1013.3
20260505080108 11 0 0.0 3.2 0.00 0.00 0.00 89 1013.1
20260505074602 11 0 0.0 4.8 0.00 0.00 0.00 88 1013.0
20260505073056 11 0 0.0 0.0 0.00 0.00 0.00 88 1012.8
20260505071603 12 0 0.0 0.0 0.00 0.00 0.00 87 1012.7
20260505070056 12 0 0.0 0.0 0.00 0.00 0.00 85 1012.4
20260505064555 13 0 0.0 3.2 0.00 0.00 0.00 83 1012.2
20260505063119 13 0 0.0 3.2 0.00 0.00 0.00 81 1012.0
20260505061623 14 0 0.0 4.8 0.00 0.00 0.00 80 1011.7
20260505054606 14 279 0.0 3.2 0.00 0.00 0.00 82 1011.6
20260505053051 14 311 0.0 3.2 0.00 0.00 0.00 82 1011.5
20260505051610 15 0 0.0 3.2 0.00 0.00 0.00 80 1011.5
20260505041559 16 332 0.0 3.2 0.00 0.00 0.00 75 1011.0
20260505040100 17 0 0.0 3.2 0.00 0.00 0.00 76 1010.8
20260505034553 18 79 0.0 1.6 0.00 0.00 0.00 74 1010.6
20260505033056 18 0 0.0 4.8 0.00 0.00 0.00 72 1010.4
20260505031559 19 0 0.0 1.6 0.00 0.00 0.00 71 1010.1
20260505030052 20 0 0.0 1.6 0.00 0.00 0.00 70 1010.0
20260505024553 20 0 0.0 3.2 0.00 0.00 0.00 69 1009.8
20260505023051 20 0 0.0 6.4 0.00 0.00 0.00 67 1009.9
20260505021552 20 121 0.0 6.4 0.00 0.00 0.00 67 1009.8
20260505014554 21 127 0.0 6.4 0.00 0.00 0.00 67 1009.9
20260505013104 21 0 0.0 11.3 0.00 0.00 0.00 67 1009.9
20260505011553 21 149 1.6 6.4 0.00 0.00 0.00 67 1009.9
20260505010112 21 163 1.6 9.7 0.00 0.00 0.00 67 1010.0
20260505004553 21 228 1.6 8.0 0.00 0.00 0.00 67 1010.2
20260505003058 21 109 1.6 6.4 0.00 0.00 0.00 66 1010.2
20260505001547 21 170 1.6 9.7 0.00 0.00 0.00 63 1010.3
20260505000057 21 196 3.2 9.7 0.00 0.00 0.00 63 1010.4
20260504234550 21 185 1.6 6.4 0.00 0.00 0.00 62 1010.5
20260504233107 21 0 3.2 12.9 0.00 0.00 0.00 62 1010.3
20260504231552 21 192 1.6 8.0 0.00 0.00 0.00 64 1010.7
20260504230057 21 228 1.6 8.0 0.00 0.00 0.00 61 1010.9
20260504224552 21 175 1.6 6.4 0.00 0.00 0.00 63 1010.8
20260504223055 20 0 0.0 6.4 0.00 0.00 0.00 63 1011.1
20260504221556 20 171 1.6 6.4 0.00 0.00 0.00 65 1011.3
20260504220051 20 159 1.6 6.4 0.00 0.00 0.00 65 1011.5
20260504214556 19 111 1.6 11.3 0.00 0.00 0.00 67 1011.4
20260504213052 18 160 3.2 9.7 0.00 0.00 0.00 66 1011.6
20260504211551 18 87 1.6 9.7 0.00 0.00 0.00 69 1011.8
20260504210105 18 140 3.2 9.7 0.00 0.00 0.00 71 1012.1
20260504204559 17 319 1.6 6.4 0.00 0.00 0.00 67 1012.2
20260504203103 17 103 1.6 9.7 0.00 0.00 0.00 71 1012.4
20260504201555 17 146 1.6 11.3 0.00 0.00 0.00 75 1012.4
20260504200052 16 195 3.2 11.3 0.00 0.00 0.00 73 1012.6
20260504194555 16 91 1.6 6.4 0.00 0.00 0.00 74 1012.7
20260504193051 16 139 0.0 8.0 0.00 0.00 0.00 76 1012.7
20260504191550 15 148 3.2 11.3 0.00 0.00 0.00 77 1012.9
20260504190112 14 194 1.6 9.7 0.00 0.00 0.00 80 1013.0
20260504184550 14 223 1.6 9.7 0.00 0.00 0.00 80 1013.3
20260504183051 14 143 1.6 8.0 0.00 0.00 0.00 82 1013.3
20260504181555 13 348 1.6 6.4 0.00 0.00 0.00 81 1013.0